Погода в Вертепе

Россия / Республика Коми     65°17′50″N   53°11′51″E
темп.,
°C
ветер,
м/с
пор.,
м/с
влажн.,
%
обл.,
%
осадки,
мм/ч
давл.,
гПа
погр.,
м
20 апреля, вт
вт2000:000з3127847 0.0 1029325
03:000з4137564 0.0 1029381
06:00+2з413756 0.0 1028557
09:00+5зсз5116235 0.0 1028671
12:00+7зсз475997 0.0 1028889
15:00+8зсз366258 0.0 1028973
18:00+4з11865 0.0 102810
21:00−1зюз11935 0.0 102910
21 апреля, ср
ср2100:00−2ююз11955 0.0 102915
03:00−2юз12955 0.0 102927
06:00+3ююз24748 0.0 1029119
09:00+8ююз35559 0.0 1028517
12:00+10ю3548100 0.0 10271148
15:00+10ю46506 0.0 10251285
18:00+8ююв4961100 0.0 1024314
21:00+5ююв41174100 0.0 1023352
22 апреля, чт
чт2200:00+5ююв41378100 0.0 1021496
03:00+4ююв41379100 0.0 1019535
06:00+5ююв51371100 0.0 1017762
09:00+7ю61565100 0.0 10151318
12:00+6ю61275100 0.1 10151267
15:00+4ю61395100 0.2 10151094
18:00+4ююз61286100 0.1 10161352
21:00+5ю51283100 0.2 10161234
23 апреля, пт
пт2300:00+5ю51186100 0.1 10151004
03:00+4ююз41094100 0.9 1015921
06:00+3юз51195100 1.2 1016912
09:00+6юз596424 1.3 10171076
12:00+8юз51058100 0.0 10181714
15:00+8зюз4864100 0.2 10201357
18:00+6зюз258289 0.3 1022572
21:00+5сз118888 0.4 102340
24 апреля, сб
сб2400:00+3всв119236 0.0 102410
03:00+3в2295100 0.0 102524
06:00+4вюв248972 0.0 1026193
09:00+7вюв227261 0.0 1026607
12:00+9в2368100 0.1 1025919
15:00+8всв347278 0.1 1025765
18:00+7всв367788 0.0 1025479
21:00+6всв3982100 0.0 1025423